Soldotna, AK

7:14 AM AKDT on May 28, 2017 (GMT -0800)
Soldotna

Weather History for PASX - October, 2011

Change the Weather History Date:

Saturday, October 29, 2011

  Actual Average Record
Temperature  
Mean Temperature 32 °F -  
Max Temperature 37 °F 35 °F 49 °F (1954)
Min Temperature 26 °F 23 °F -1 °F (1953)
Degree Days  
Heating Degree Days 34    
Moisture  
Dew Point 22 °F    
Average Humidity 65    
Maximum Humidity 86    
Minimum Humidity 52    
Precipitation  
Precipitation 0.00 in - - ()
Sea Level Pressure  
Sea Level Pressure 29.07 in    
Wind  
Wind Speed 5 mph (ENE)    
Max Wind Speed 13 mph    
Max Gust Speed 17 mph    
Visibility 10 miles    
Events      
Averages and records for this station are not official NWS values.
T = Trace of Precipitation, MM = Missing Value Source: NWS Daily Summary

Daily Weather History Graph

Daily Weather History Graph

Search for Another Location

Airport or City:

Trip Planner

Search our weather history database for the weather conditions in past years. The results will help you decide how hot, cold, wet, or windy it might be!

Date:

Astronomy

Oct. 29, 2011 Rise Set
Actual Time 9:20 AM AKDT 6:14 PM AKDT
Civil Twilight 8:35 AM AKDT 6:59 PM AKDT
Nautical Twilight 7:45 AM AKDT 7:49 PM AKDT
Astronomical Twilight 6:56 AM AKDT 8:37 PM AKDT
Moon 1:55 PM AKDT (10/29) 7:46 PM AKDT (10/29)
Length of Visible Light 10h 24m
Length of Day
8h 53m
Waxing Crescent, 13% of the Moon is Illuminated
Oct 29
Waxing Crescent
Nov 2
First Quarter
Nov 10
Full
Nov 18
Last Quarter
Nov 24
New

Hourly Weather History & Observations

Time (AKDT) Temp. Windchill Dew Point Humidity Pressure Visibility Wind Dir Wind Speed Gust Speed Precip Events Conditions
12:16 AM 28.4 °F 24.6 °F 23.0 °F 80% 29.13 in 10.0 mi ESE 3.5 mph - N/A   Overcast
12:36 AM 28.4 °F 23.3 °F 24.8 °F 86% 29.12 in 10.0 mi ESE 4.6 mph - N/A   Overcast
12:56 AM 28.4 °F 24.6 °F 24.8 °F 86% 29.12 in 10.0 mi ESE 3.5 mph - N/A   Overcast
1:16 AM 28.4 °F 24.6 °F 23.0 °F 80% 29.12 in 10.0 mi East 3.5 mph - N/A   Mostly Cloudy
1:36 AM 28.4 °F 24.6 °F 24.8 °F 86% 29.11 in 10.0 mi ESE 3.5 mph - N/A   Overcast
1:56 AM 26.6 °F 22.6 °F 23.0 °F 86% 29.12 in 10.0 mi ESE 3.5 mph - N/A   Scattered Clouds
2:16 AM 26.6 °F - 21.2 °F 80% 29.11 in 10.0 mi Calm Calm - N/A   Mostly Cloudy
2:36 AM 26.6 °F 22.6 °F 23.0 °F 86% 29.11 in 10.0 mi ESE 3.5 mph - N/A   Mostly Cloudy
2:56 AM 26.6 °F - 23.0 °F 86% 29.10 in 10.0 mi Calm Calm - N/A   Scattered Clouds
3:16 AM 30.2 °F 22.6 °F 24.8 °F 80% 29.10 in - NE 8.1 mph - N/A   Clear
3:36 AM 32.0 °F 26.4 °F 26.6 °F 80% 29.10 in 10.0 mi ENE 5.8 mph - N/A   Clear
3:56 AM 30.2 °F 25.4 °F 24.8 °F 80% 29.10 in 10.0 mi East 4.6 mph - N/A   Clear
4:16 AM 32.0 °F 27.5 °F 24.8 °F 75% 29.09 in 10.0 mi North 4.6 mph - N/A   Clear
4:36 AM 33.8 °F 30.8 °F 24.8 °F 70% 29.08 in 10.0 mi NNE 3.5 mph - N/A   Clear
4:56 AM 32.0 °F 27.5 °F 24.8 °F 75% 29.08 in 10.0 mi East 4.6 mph - N/A   Clear
5:16 AM 32.0 °F 25.6 °F 24.8 °F 75% 29.08 in 10.0 mi ENE 6.9 mph - N/A   Clear
5:36 AM 32.0 °F 26.4 °F 23.0 °F 69% 29.08 in 10.0 mi East 5.8 mph - N/A   Clear
5:56 AM 32.0 °F 24.8 °F 23.0 °F 69% 29.08 in 10.0 mi ENE 8.1 mph - N/A   Partly Cloudy
6:16 AM 32.0 °F 25.6 °F 21.2 °F 64% 29.08 in 10.0 mi ENE 6.9 mph - N/A   Partly Cloudy
6:36 AM 30.2 °F - 21.2 °F 69% 29.07 in 10.0 mi Calm Calm - N/A   Clear
6:56 AM 30.2 °F 26.7 °F 21.2 °F 69% 29.07 in 10.0 mi East 3.5 mph - N/A   Clear
7:16 AM 30.2 °F 26.7 °F 21.2 °F 69% 29.06 in 10.0 mi East 3.5 mph - N/A   Clear
7:36 AM 30.2 °F 25.4 °F 21.2 °F 69% 29.06 in 10.0 mi East 4.6 mph - N/A   Clear
7:56 AM 30.2 °F 25.4 °F 21.2 °F 69% 29.05 in 10.0 mi East 4.6 mph - N/A   Partly Cloudy
8:16 AM 30.2 °F 24.3 °F 21.2 °F 69% 29.05 in 10.0 mi ENE 5.8 mph - N/A   Clear
8:36 AM 33.8 °F 27.0 °F 21.2 °F 60% 29.04 in 10.0 mi ENE 8.1 mph - N/A   Clear
9:16 AM 33.8 °F 27.0 °F 21.2 °F 60% 29.05 in 10.0 mi ENE 8.1 mph - N/A   Partly Cloudy
9:36 AM 33.8 °F 29.6 °F 21.2 °F 60% 29.05 in 10.0 mi ENE 4.6 mph - N/A   Scattered Clouds
9:56 AM 33.8 °F 27.7 °F 21.2 °F 60% 29.04 in 10.0 mi ENE 6.9 mph - N/A   Overcast
10:16 AM 33.8 °F 27.7 °F 21.2 °F 60% 29.04 in 10.0 mi NE 6.9 mph - N/A   Overcast
10:36 AM 33.8 °F 25.8 °F 21.2 °F 60% 29.04 in 10.0 mi NE 10.4 mph 17.3 mph N/A   Overcast
10:56 AM 33.8 °F 25.3 °F 21.2 °F 60% 29.04 in 10.0 mi ENE 11.5 mph 17.3 mph N/A   Overcast
11:16 AM 33.8 °F 25.8 °F 21.2 °F 60% 29.04 in 10.0 mi ENE 10.4 mph - N/A   Mostly Cloudy
11:36 AM 35.6 °F 29.2 °F 21.2 °F 56% 29.04 in 10.0 mi ENE 8.1 mph - N/A   Clear
11:56 AM 35.6 °F 30.7 °F 21.2 °F 56% 29.04 in 10.0 mi East 5.8 mph - N/A   Clear
12:16 PM 35.6 °F 28.0 °F 21.2 °F 56% 29.04 in 10.0 mi ENE 10.4 mph - N/A   Clear
12:36 PM 35.6 °F 29.2 °F 21.2 °F 56% 29.04 in 10.0 mi ENE 8.1 mph - N/A   Clear
12:56 PM 35.6 °F 27.1 °F 21.2 °F 56% 29.04 in 10.0 mi NE 12.7 mph 17.3 mph N/A   Mostly Cloudy
1:16 PM 35.6 °F 28.0 °F 21.2 °F 56% 29.04 in 10.0 mi NE 10.4 mph - N/A   Overcast
1:36 PM 35.6 °F 31.7 °F 21.2 °F 56% 29.04 in 10.0 mi ENE 4.6 mph - N/A   Scattered Clouds
1:56 PM 37.4 °F 31.4 °F 21.2 °F 52% 29.04 in 10.0 mi NE 8.1 mph - N/A   Scattered Clouds
2:16 PM 37.4 °F 32.8 °F 21.2 °F 52% 29.04 in 10.0 mi ENE 5.8 mph - N/A   Mostly Cloudy
2:36 PM 37.4 °F 31.4 °F 21.2 °F 52% 29.04 in 10.0 mi ENE 8.1 mph - N/A   Overcast
2:56 PM 37.4 °F 30.8 °F 21.2 °F 52% 29.04 in 10.0 mi NE 9.2 mph 17.3 mph N/A   Mostly Cloudy
3:16 PM 37.4 °F 32.1 °F 21.2 °F 52% 29.04 in 10.0 mi ENE 6.9 mph - N/A   Scattered Clouds
3:36 PM 37.4 °F 31.4 °F 21.2 °F 52% 29.04 in 10.0 mi East 8.1 mph - N/A   Scattered Clouds
3:56 PM 37.4 °F 32.1 °F 21.2 °F 52% 29.04 in 10.0 mi ENE 6.9 mph - N/A   Mostly Cloudy
4:16 PM 37.4 °F 31.4 °F 21.2 °F 52% 29.05 in 10.0 mi East 8.1 mph - N/A   Overcast
4:36 PM 37.4 °F 31.4 °F 21.2 °F 52% 29.06 in 10.0 mi East 8.1 mph - N/A   Overcast
4:56 PM 35.6 °F 31.7 °F 21.2 °F 56% 29.06 in 10.0 mi ESE 4.6 mph - N/A   Overcast
5:16 PM 35.6 °F 31.7 °F 21.2 °F 56% 29.06 in 10.0 mi ESE 4.6 mph - N/A   Overcast
5:36 PM 35.6 °F - 21.2 °F 56% 29.07 in 10.0 mi Calm Calm - N/A   Overcast
5:56 PM 35.6 °F 31.7 °F 21.2 °F 56% 29.08 in 10.0 mi SE 4.6 mph - N/A   Overcast
6:16 PM 33.8 °F 30.8 °F 21.2 °F 60% 29.09 in 10.0 mi SSE 3.5 mph - N/A   Overcast
6:36 PM 33.8 °F 28.6 °F 21.2 °F 60% 29.09 in 10.0 mi SE 5.8 mph - N/A   Overcast
6:56 PM 33.8 °F 29.6 °F 23.0 °F 65% 29.10 in 10.0 mi SE 4.6 mph - N/A   Overcast
7:16 PM 33.8 °F - 21.2 °F 60% 29.11 in 10.0 mi Calm Calm - N/A   Overcast
7:36 PM 33.8 °F - 21.2 °F 60% 29.11 in - Calm Calm - N/A   Overcast
7:56 PM 33.8 °F - 21.2 °F 60% 29.12 in - Calm Calm - N/A   Overcast
8:16 PM 33.8 °F - 21.2 °F 60% 29.13 in - Calm Calm - N/A   Overcast
8:36 PM 33.8 °F - 21.2 °F 60% 29.14 in - Calm Calm - N/A   Overcast
8:56 PM 33.8 °F - 21.2 °F 60% 29.15 in - Calm Calm - N/A   Overcast
9:16 PM 32.0 °F - 23.0 °F 69% 29.16 in - Calm Calm - N/A   Overcast
9:36 PM 32.0 °F - 23.0 °F 69% 29.16 in - Calm Calm - N/A   Overcast
9:56 PM 32.0 °F - 23.0 °F 69% 29.17 in - Calm Calm - N/A   Overcast
10:16 PM 32.0 °F - 24.8 °F 75% 29.18 in - Calm Calm - N/A   Overcast
10:36 PM 33.8 °F - 23.0 °F 65% 29.18 in - Calm Calm - N/A   Overcast
10:56 PM 33.8 °F - 23.0 °F 65% 29.19 in 10.0 mi Calm Calm - N/A   Overcast
11:16 PM 33.8 °F - 23.0 °F 65% 29.20 in 10.0 mi Calm Calm - N/A   Overcast
11:56 PM 33.8 °F 28.6 °F 26.6 °F 75% 29.21 in - South 5.8 mph - N/A   Overcast